QPF
0.10 0.07 0.07 0.07 0.06 0.07 0.09 0.13 0.16 0.17 0.16 0.16 0.14 0.11 0.10 0.10 0.09 0.08 0.07 0.06 0.05 0.05 0.06 0.07 0.09 0.08 0.09 0.09 0.09 0.09 0.10 0.10 0.08 0.05 0.03 0.03 0.04 0.05 0.07 0.06 0.05 0.04 0.02
0.11 0.10 0.09 0.07 0.07 0.09 0.11 0.13 0.12 0.14 0.14 0.16 0.11 0.10 0.10 0.09 0.08 0.08 0.08 0.07 0.05 0.05 0.06 0.08 0.10 0.12 0.11 0.11 0.10 0.10 0.10 0.10 0.09 0.07 0.04 0.03 0.03 0.04 0.06 0.09 0.09 0.07 0.04
0.11 0.11 0.10 0.09 0.09 0.10 0.11 0.11 0.11 0.12 0.11 0.10 0.08 0.09 0.09 0.07 0.06 0.07 0.07 0.06 0.04 0.04 0.05 0.06 0.09 0.10 0.11 0.12 0.12 0.11 0.10 0.10 0.09 0.07 0.05 0.04 0.03 0.03 0.04 0.06 0.08 0.08 0.07
0.17 0.17 0.15 0.13 0.12 0.11 0.12 0.11 0.12 0.15 0.13 0.11 0.09 0.07 0.06 0.06 0.04 0.06 0.06 0.05 0.04 0.04 0.05 0.05 0.06 0.08 0.09 0.10 0.12 0.12 0.10 0.09 0.08 0.07 0.06 0.04 0.03 0.02 0.02 0.03 0.04 0.05 0.06
0.28 0.29 0.25 0.20 0.17 0.16 0.14 0.11 0.11 0.13 0.12 0.09 0.07 0.05 0.04 0.03 0.03 0.02 0.02 0.02 0.03 0.03 0.04 0.04 0.03 0.04 0.04 0.06 0.10 0.11 0.10 0.08 0.07 0.07 0.07 0.05 0.04 0.02 0.02 0.02 0.02 0.02 0.02
0.39 0.40 0.36 0.28 0.21 0.16 0.13 0.13 0.14 0.12 0.09 0.07 0.05 0.04 0.04 0.04 0.02 0.02 0.01 0.01 0.02 0.02 0.02 0.02 0.03 0.03 0.03 0.03 0.05 0.08 0.10 0.09 0.08 0.07 0.07 0.07 0.06 0.04 0.02 0.02 0.02 0.01 0.01
0.34 0.35 0.33 0.28 0.21 0.15 0.13 0.12 0.12 0.11 0.08 0.07 0.05 0.04 0.03 0.02 0.02 0.01 0.01 0.01 0.01 0.01 0.01 0.01 0.02 0.02 0.02 0.01 0.02 0.04 0.07 0.09 0.09 0.08 0.08 0.08 0.09 0.07 0.04 0.03 0.02 0.01 0.01
0.26 0.23 0.20 0.16 0.14 0.12 0.12 0.11 0.10 0.09 0.07 0.06 0.06 0.06 0.05 0.03 0.01 0.00 0.00 0.00 0.00 0.01 0.01 0.01 0.01 0.02 0.02 0.02 0.01 0.01 0.03 0.06 0.08 0.08 0.08 0.08 0.08 0.08 0.06 0.05 0.03 0.02 0.01
0.18 0.15 0.14 0.11 0.10 0.09 0.10 0.10 0.10 0.09 0.07 0.06 0.05 0.05 0.04 0.03 0.01 0.01 0.01 0.00 0.00 0.01 0.01 0.01 0.01 0.01 0.01 0.01 0.02 0.02 0.01 0.02 0.04 0.07 0.08 0.08 0.07 0.05 0.04 0.04 0.03 0.02 0.02
0.12 0.11 0.11 0.10 0.10 0.09 0.08 0.07 0.08 0.08 0.08 0.05 0.04 0.03 0.03 0.02 0.02 0.01 0.01 0.00 0.00 0.00 0.00 0.00 0.00 0.01 0.00 0.00 0.01 0.00 0.01 0.01 0.02 0.04 0.06 0.07 0.06 0.05 0.03 0.03 0.04 0.03 0.02
0.08 0.09 0.09 0.09 0.10 0.08 0.07 0.06 0.06 0.07 0.06 0.06 0.05 0.03 0.02 0.02 0.02 0.01 0.01 0.00 0.00 0.00 0.00 0.00 0.00 0.00 0.00 0.01 0.01 0.01 0.00 0.00 0.01 0.01 0.03 0.04 0.05 0.05 0.03 0.02 0.03 0.04 0.04
0.05 0.06 0.06 0.07 0.08 0.08 0.09 0.09 0.08 0.07 0.06 0.06 0.05 0.05 0.04 0.03 0.01 0.01 0.01 0.01 0.01 0.00 0.00 0.00 0.00 0.00 0.00 0.00 0.00 0.00 0.00 0.00 0.01 0.01 0.01 0.02 0.03 0.04 0.04 0.03 0.05 0.07 0.07
0.02 0.04 0.04 0.05 0.06 0.08 0.09 0.10 0.09 0.08 0.08 0.08 0.05 0.04 0.03 0.04 0.03 0.03 0.02 0.01 0.01 0.01 0.00 0.00 0.00 0.00 0.01 0.01 0.01 0.00 0.00 0.00 0.00 0.01 0.01 0.01 0.02 0.02 0.02 0.04 0.06 0.08 0.10
0.01 0.01 0.02 0.03 0.04 0.06 0.07 0.09 0.09 0.09 0.10 0.09 0.07 0.05 0.04 0.03 0.04 0.04 0.03 0.02 0.02 0.01 0.01 0.00 0.00 0.00 0.01 0.01 0.01 0.01 0.01 0.00 0.00 0.00 0.01 0.01 0.01 0.02 0.02 0.03 0.04 0.05 0.06
0.00 0.00 0.01 0.01 0.02 0.03 0.04 0.05 0.07 0.09 0.11 0.11 0.09 0.07 0.05 0.04 0.03 0.03 0.04 0.03 0.03 0.02 0.01 0.01 0.00 0.00 0.01 0.01 0.00 0.02 0.01 0.00 0.00 0.00 0.00 0.01 0.01 0.01 0.02 0.02 0.04 0.04 0.05
0.00 0.00 0.00 0.01 0.02 0.03 0.03 0.04 0.05 0.06 0.08 0.11 0.12 0.11 0.09 0.06 0.05 0.04 0.04 0.04 0.04 0.03 0.02 0.00 0.00 0.00 0.01 0.00 0.00 0.01 0.01 0.00 0.00 0.00 0.00 0.00 0.01 0.02 0.02 0.03 0.05 0.05 0.05
0.00 0.00 0.00 0.00 0.01 0.01 0.02 0.03 0.03 0.05 0.07 0.09 0.13 0.13 0.12 0.11 0.09 0.06 0.05 0.04 0.04 0.03 0.02 0.01 0.01 0.01 0.01 0.01 0.01 0.01 0.01 0.01 0.01 0.01 0.00 0.00 0.01 0.02 0.03 0.04 0.04 0.06 0.06
0.00 0.00 0.00 0.01 0.01 0.01 0.02 0.02 0.02 0.03 0.05 0.06 0.10 0.13 0.14 0.14 0.12 0.10 0.07 0.05 0.04 0.04 0.03 0.03 0.02 0.01 0.01 0.02 0.02 0.01 0.01 0.01 0.01 0.01 0.01 0.01 0.01 0.01 0.02 0.03 0.04 0.05 0.06
0.00 0.00 0.00 0.01 0.01 0.01 0.01 0.02 0.02 0.03 0.03 0.03 0.05 0.08 0.11 0.13 0.14 0.12 0.10 0.08 0.06 0.04 0.04 0.04 0.03 0.02 0.01 0.01 0.02 0.01 0.01 0.01 0.01 0.01 0.01 0.01 0.01 0.01 0.02 0.02 0.02 0.03 0.04
0.01 0.01 0.00 0.01 0.00 0.00 0.00 0.01 0.01 0.01 0.02 0.03 0.03 0.03 0.05 0.06 0.09 0.11 0.10 0.09 0.08 0.06 0.05 0.04 0.03 0.03 0.01 0.01 0.02 0.02 0.02 0.02 0.01 0.01 0.01 0.02 0.02 0.02 0.02 0.03 0.02 0.02 0.03
0.01 0.01 0.01 0.01 0.01 0.00 0.00 0.01 0.01 0.01 0.02 0.02 0.02 0.02 0.03 0.04 0.05 0.07 0.10 0.10 0.09 0.07 0.06 0.04 0.03 0.03 0.02 0.02 0.02 0.02 0.02 0.03 0.03 0.02 0.02 0.02 0.02 0.01 0.02 0.03 0.03 0.03 0.03
0.03 0.03 0.03 0.02 0.01 0.00 0.00 0.00 0.01 0.01 0.02 0.02 0.02 0.02 0.02 0.03 0.03 0.04 0.07 0.09 0.10 0.08 0.06 0.05 0.04 0.03 0.03 0.02 0.02 0.02 0.02 0.02 0.03 0.03 0.02 0.03 0.03 0.03 0.02 0.02 0.03 0.03 0.03
0.04 0.04 0.04 0.03 0.02 0.02 0.01 0.00 0.00 0.01 0.01 0.02 0.02 0.02 0.01 0.02 0.03 0.04 0.05 0.06 0.08 0.08 0.07 0.06 0.05 0.04 0.04 0.03 0.03 0.03 0.03 0.02 0.02 0.02 0.02 0.03 0.04 0.04 0.03 0.04 0.04 0.03 0.03
0.05 0.05 0.05 0.04 0.04 0.03 0.01 0.00 0.00 0.01 0.01 0.01 0.01 0.01 0.01 0.01 0.02 0.05 0.06 0.06 0.06 0.06 0.06 0.05 0.05 0.05 0.06 0.06 0.05 0.04 0.05 0.04 0.04 0.03 0.02 0.03 0.03 0.03 0.02 0.03 0.04 0.04 0.04
0.05 0.05 0.05 0.05 0.05 0.04 0.02 0.00 0.00 0.01 0.02 0.02 0.01 0.01 0.02 0.02 0.01 0.02 0.06 0.08 0.07 0.07 0.07 0.06 0.04 0.05 0.04 0.05 0.05 0.05 0.05 0.05 0.06 0.05 0.03 0.02 0.03 0.03 0.03 0.04 0.05 0.05 0.03
0.07 0.07 0.06 0.05 0.05 0.05 0.03 0.01 0.00 0.02 0.03 0.03 0.03 0.02 0.01 0.01 0.01 0.01 0.03 0.07 0.10 0.08 0.07 0.06 0.05 0.04 0.03 0.02 0.03 0.04 0.04 0.04 0.05 0.06 0.04 0.02 0.03 0.03 0.04 0.04 0.04 0.04 0.03
MSLP
1012.38 1012.50 1012.59 1012.68 1012.76 1012.85 1012.95 1013.06 1013.16 1013.23 1013.25 1013.21 1013.13 1013.03 1012.94 1012.90 1012.95 1013.10 1013.36 1013.70 1014.09 1014.50 1014.89 1015.23 1015.53 1015.79 1016.03 1016.30 1016.60 1016.94 1017.34 1017.77 1018.21 1018.63 1019.03 1019.37 1019.68 1019.96 1020.22 1020.47 1020.73 1021.00 1021.27
1011.85 1011.92 1011.98 1012.05 1012.14 1012.26 1012.40 1012.54 1012.68 1012.78 1012.83 1012.82 1012.75 1012.66 1012.56 1012.50 1012.53 1012.64 1012.87 1013.18 1013.55 1013.94 1014.33 1014.69 1015.00 1015.29 1015.55 1015.82 1016.13 1016.47 1016.85 1017.27 1017.70 1018.13 1018.53 1018.91 1019.25 1019.56 1019.86 1020.14 1020.42 1020.70 1020.99
1011.29 1011.29 1011.31 1011.37 1011.47 1011.62 1011.81 1012.02 1012.22 1012.39 1012.49 1012.53 1012.49 1012.41 1012.31 1012.22 1012.20 1012.26 1012.42 1012.67 1012.99 1013.35 1013.72 1014.08 1014.41 1014.71 1014.99 1015.27 1015.57 1015.90 1016.27 1016.67 1017.09 1017.52 1017.94 1018.34 1018.72 1019.07 1019.40 1019.72 1020.03 1020.33 1020.64
1010.71 1010.63 1010.60 1010.64 1010.76 1010.95 1011.20 1011.49 1011.77 1012.02 1012.20 1012.30 1012.31 1012.25 1012.14 1012.03 1011.95 1011.94 1012.02 1012.19 1012.44 1012.75 1013.08 1013.42 1013.75 1014.05 1014.34 1014.63 1014.92 1015.24 1015.60 1015.98 1016.40 1016.83 1017.26 1017.68 1018.09 1018.48 1018.85 1019.21 1019.55 1019.88 1020.21
1010.13 1009.97 1009.89 1009.91 1010.04 1010.27 1010.59 1010.95 1011.32 1011.66 1011.92 1012.09 1012.16 1012.12 1012.02 1011.88 1011.76 1011.68 1011.67 1011.76 1011.93 1012.16 1012.45 1012.75 1013.05 1013.35 1013.64 1013.92 1014.21 1014.52 1014.86 1015.23 1015.64 1016.07 1016.52 1016.96 1017.40 1017.82 1018.22 1018.60 1018.97 1019.33 1019.69
1009.60 1009.37 1009.25 1009.25 1009.38 1009.64 1010.00 1010.42 1010.87 1011.28 1011.63 1011.87 1011.99 1012.00 1011.91 1011.77 1011.61 1011.48 1011.41 1011.41 1011.50 1011.66 1011.87 1012.13 1012.39 1012.67 1012.93 1013.20 1013.48 1013.78 1014.11 1014.48 1014.88 1015.31 1015.76 1016.22 1016.67 1017.10 1017.52 1017.92 1018.31 1018.68 1019.05
1009.17 1008.89 1008.74 1008.72 1008.85 1009.12 1009.50 1009.96 1010.45 1010.91 1011.31 1011.61 1011.78 1011.83 1011.78 1011.66 1011.49 1011.34 1011.22 1011.16 1011.18 1011.27 1011.42 1011.62 1011.84 1012.07 1012.31 1012.56 1012.83 1013.12 1013.44 1013.79 1014.19 1014.61 1015.05 1015.50 1015.94 1016.38 1016.79 1017.19 1017.57 1017.94 1018.32
1008.90 1008.60 1008.42 1008.39 1008.51 1008.77 1009.14 1009.60 1010.09 1010.57 1010.99 1011.32 1011.53 1011.63 1011.62 1011.53 1011.39 1011.24 1011.11 1011.02 1011.00 1011.04 1011.13 1011.27 1011.44 1011.63 1011.84 1012.06 1012.30 1012.57 1012.88 1013.22 1013.59 1013.99 1014.41 1014.84 1015.26 1015.66 1016.05 1016.42 1016.78 1017.13 1017.50
1008.82 1008.52 1008.34 1008.30 1008.40 1008.64 1008.98 1009.39 1009.84 1010.28 1010.68 1011.01 1011.24 1011.37 1011.40 1011.36 1011.27 1011.16 1011.05 1010.97 1010.94 1010.95 1011.00 1011.10 1011.22 1011.36 1011.53 1011.72 1011.94 1012.18 1012.46 1012.78 1013.12 1013.49 1013.87 1014.25 1014.62 1014.98 1015.31 1015.64 1015.97 1016.30 1016.65
1008.92 1008.65 1008.49 1008.46 1008.54 1008.73 1009.00 1009.34 1009.71 1010.08 1010.42 1010.70 1010.92 1011.06 1011.13 1011.15 1011.11 1011.06 1011.01 1010.96 1010.94 1010.95 1010.99 1011.05 1011.13 1011.24 1011.37 1011.53 1011.71 1011.93 1012.18 1012.46 1012.76 1013.08 1013.41 1013.73 1014.04 1014.33 1014.61 1014.90 1015.18 1015.49 1015.82
1009.13 1008.93 1008.81 1008.78 1008.85 1008.99 1009.19 1009.43 1009.69 1009.95 1010.20 1010.41 1010.59 1010.72 1010.81 1010.87 1010.90 1010.92 1010.93 1010.94 1010.95 1010.97 1011.01 1011.05 1011.11 1011.19 1011.28 1011.41 1011.56 1011.74 1011.96 1012.20 1012.46 1012.73 1012.99 1013.25 1013.49 1013.73 1013.96 1014.19 1014.45 1014.73 1015.05
1009.39 1009.25 1009.19 1009.19 1009.25 1009.34 1009.47 1009.60 1009.75 1009.89 1010.02 1010.14 1010.26 1010.36 1010.46 1010.55 1010.63 1010.71 1010.78 1010.84 1010.90 1010.95 1010.99 1011.03 1011.07 1011.13 1011.20 1011.29 1011.41 1011.57 1011.75 1011.95 1012.16 1012.37 1012.58 1012.78 1012.97 1013.15 1013.34 1013.54 1013.78 1014.05 1014.37
1009.58 1009.53 1009.53 1009.56 1009.62 1009.68 1009.74 1009.79 1009.82 1009.84 1009.87 1009.90 1009.94 1010.00 1010.09 1010.19 1010.31 1010.43 1010.55 1010.66 1010.76 1010.83 1010.89 1010.93 1010.96 1011.00 1011.05 1011.12 1011.22 1011.34 1011.49 1011.65 1011.83 1012.00 1012.16 1012.31 1012.46 1012.61 1012.77 1012.96 1013.18 1013.46 1013.78
1009.62 1009.64 1009.70 1009.78 1009.85 1009.90 1009.91 1009.90 1009.85 1009.78 1009.72 1009.67 1009.65 1009.67 1009.73 1009.83 1009.97 1010.12 1010.27 1010.41 1010.53 1010.62 1010.68 1010.72 1010.75 1010.78 1010.81 1010.86 1010.94 1011.05 1011.17 1011.31 1011.45 1011.59 1011.73 1011.85 1011.97 1012.10 1012.25 1012.43 1012.66 1012.93 1013.26
1009.45 1009.53 1009.65 1009.76 1009.86 1009.91 1009.92 1009.87 1009.78 1009.67 1009.55 1009.45 1009.39 1009.38 1009.42 1009.52 1009.65 1009.81 1009.98 1010.13 1010.26 1010.35 1010.41 1010.45 1010.47 1010.48 1010.51 1010.55 1010.61 1010.70 1010.81 1010.94 1011.07 1011.19 1011.31 1011.42 1011.54 1011.66 1011.80 1011.98 1012.20 1012.46 1012.77
1009.05 1009.18 1009.33 1009.48 1009.60 1009.68 1009.71 1009.67 1009.59 1009.47 1009.35 1009.24 1009.17 1009.15 1009.19 1009.27 1009.40 1009.56 1009.72 1009.87 1009.99 1010.08 1010.13 1010.16 1010.17 1010.17 1010.19 1010.22 1010.28 1010.37 1010.48 1010.60 1010.73 1010.85 1010.97 1011.08 1011.19 1011.31 1011.45 1011.61 1011.81 1012.04 1012.30
1008.46 1008.59 1008.75 1008.93 1009.09 1009.21 1009.27 1009.29 1009.25 1009.18 1009.10 1009.02 1008.98 1008.98 1009.02 1009.11 1009.24 1009.39 1009.54 1009.67 1009.78 1009.85 1009.89 1009.91 1009.91 1009.90 1009.91 1009.94 1010.01 1010.10 1010.22 1010.35 1010.49 1010.63 1010.76 1010.88 1010.99 1011.10 1011.22 1011.35 1011.50 1011.66 1011.85
1007.73 1007.84 1008.00 1008.18 1008.37 1008.53 1008.66 1008.74 1008.79 1008.79 1008.78 1008.77 1008.78 1008.82 1008.90 1009.01 1009.14 1009.29 1009.43 1009.55 1009.64 1009.70 1009.72 1009.72 1009.71 1009.70 1009.71 1009.75 1009.82 1009.93 1010.07 1010.22 1010.39 1010.55 1010.71 1010.84 1010.96 1011.06 1011.14 1011.23 1011.30 1011.38 1011.46
1006.94 1007.00 1007.13 1007.31 1007.52 1007.73 1007.92 1008.08 1008.21 1008.31 1008.39 1008.47 1008.55 1008.64 1008.76 1008.90 1009.05 1009.20 1009.33 1009.45 1009.53 1009.57 1009.59 1009.58 1009.56 1009.56 1009.57 1009.62 1009.71 1009.84 1010.01 1010.21 1010.42 1010.62 1010.80 1010.96 1011.09 1011.18 1011.24 1011.26 1011.27 1011.25 1011.22
1006.13 1006.13 1006.23 1006.40 1006.62 1006.86 1007.11 1007.34 1007.56 1007.75 1007.91 1008.07 1008.22 1008.38 1008.55 1008.72 1008.89 1009.05 1009.19 1009.31 1009.39 1009.43 1009.44 1009.43 1009.42 1009.42 1009.44 1009.51 1009.63 1009.79 1010.01 1010.25 1010.51 1010.77 1011.01 1011.21 1011.36 1011.45 1011.49 1011.48 1011.41 1011.31 1011.17
1005.35 1005.30 1005.37 1005.52 1005.74 1006.01 1006.29 1006.58 1006.86 1007.12 1007.35 1007.58 1007.79 1007.99 1008.20 1008.40 1008.60 1008.78 1008.93 1009.06 1009.14 1009.19 1009.21 1009.20 1009.20 1009.20 1009.24 1009.33 1009.48 1009.69 1009.96 1010.27 1010.60 1010.93 1011.24 1011.50 1011.70 1011.83 1011.88 1011.84 1011.74 1011.59 1011.39
1004.62 1004.54 1004.58 1004.72 1004.94 1005.22 1005.53 1005.84 1006.16 1006.45 1006.73 1006.99 1007.23 1007.47 1007.70 1007.92 1008.14 1008.33 1008.50 1008.64 1008.74 1008.80 1008.82 1008.83 1008.83 1008.84 1008.90 1009.01 1009.20 1009.45 1009.78 1010.16 1010.58 1011.01 1011.41 1011.76 1012.04 1012.23 1012.32 1012.32 1012.23 1012.07 1011.87
1003.96 1003.86 1003.89 1004.03 1004.25 1004.53 1004.85 1005.17 1005.49 1005.80 1006.08 1006.34 1006.58 1006.82 1007.05 1007.29 1007.51 1007.72 1007.91 1008.06 1008.17 1008.24 1008.27 1008.28 1008.28 1008.31 1008.37 1008.51 1008.72 1009.03 1009.42 1009.88 1010.39 1010.91 1011.43 1011.89 1012.28 1012.57 1012.75 1012.82 1012.80 1012.69 1012.54
1003.37 1003.29 1003.33 1003.47 1003.70 1003.98 1004.29 1004.61 1004.91 1005.18 1005.44 1005.67 1005.89 1006.11 1006.33 1006.55 1006.77 1006.99 1007.18 1007.34 1007.46 1007.53 1007.57 1007.58 1007.58 1007.60 1007.67 1007.82 1008.06 1008.40 1008.84 1009.38 1009.98 1010.61 1011.24 1011.83 1012.34 1012.76 1013.06 1013.25 1013.34 1013.34 1013.28
1002.87 1002.82 1002.89 1003.06 1003.29 1003.57 1003.87 1004.15 1004.42 1004.65 1004.86 1005.05 1005.23 1005.41 1005.60 1005.80 1006.01 1006.21 1006.41 1006.57 1006.69 1006.77 1006.80 1006.80 1006.79 1006.80 1006.86 1007.00 1007.25 1007.62 1008.11 1008.70 1009.38 1010.11 1010.85 1011.56 1012.20 1012.75 1013.19 1013.51 1013.73 1013.87 1013.94
1002.47 1002.47 1002.57 1002.77 1003.01 1003.29 1003.57 1003.82 1004.04 1004.23 1004.38 1004.51 1004.64 1004.77 1004.92 1005.10 1005.29 1005.49 1005.67 1005.83 1005.95 1006.01 1006.03 1006.02 1005.99 1005.98 1006.03 1006.16 1006.41 1006.78 1007.29 1007.93 1008.67 1009.47 1010.29 1011.10 1011.85 1012.52 1013.09 1013.54 1013.90 1014.17 1014.38
Thickness
5749 5748 5747 5746 5746 5747 5747 5746 5745 5745 5745 5745 5745 5747 5747 5747 5746 5746 5747 5743 5741 5740 5739 5738 5738 5737 5737 5737 5736 5735 5734 5733 5732 5731 5730 5729 5729 5728 5728 5727 5726 5725 5724
5744 5742 5741 5741 5742 5742 5743 5743 5743 5742 5742 5743 5743 5745 5745 5745 5745 5744 5745 5744 5741 5740 5739 5738 5737 5737 5736 5736 5735 5735 5734 5733 5732 5731 5730 5730 5729 5728 5728 5727 5726 5726 5725
5737 5736 5735 5736 5738 5738 5738 5738 5739 5738 5738 5740 5741 5743 5743 5743 5744 5743 5743 5744 5744 5741 5740 5738 5737 5736 5736 5735 5735 5734 5734 5733 5732 5731 5730 5730 5729 5729 5728 5728 5727 5726 5725
5730 5730 5729 5731 5731 5731 5733 5734 5734 5734 5734 5735 5736 5739 5742 5742 5742 5742 5742 5742 5743 5745 5742 5739 5737 5736 5735 5735 5735 5734 5734 5733 5732 5732 5731 5730 5730 5729 5729 5728 5727 5726 5726
5725 5723 5724 5724 5724 5727 5727 5729 5731 5729 5728 5729 5731 5734 5737 5739 5741 5741 5742 5742 5741 5741 5742 5740 5738 5736 5736 5735 5734 5734 5733 5733 5732 5732 5730 5730 5730 5729 5729 5728 5727 5727 5726
5719 5719 5718 5719 5720 5721 5722 5723 5721 5721 5722 5724 5728 5731 5733 5736 5737 5739 5739 5741 5741 5741 5741 5742 5740 5738 5736 5735 5734 5733 5733 5732 5732 5731 5730 5730 5729 5729 5729 5728 5727 5727 5726
5714 5713 5714 5714 5715 5717 5718 5718 5716 5715 5717 5720 5720 5723 5729 5732 5733 5734 5736 5739 5741 5740 5739 5739 5739 5741 5739 5735 5734 5733 5732 5732 5731 5730 5730 5729 5729 5729 5728 5728 5728 5727 5726
5708 5709 5709 5710 5712 5712 5711 5711 5709 5710 5714 5715 5714 5716 5719 5723 5725 5732 5733 5733 5735 5737 5738 5737 5737 5736 5737 5738 5736 5733 5731 5731 5730 5730 5729 5729 5729 5728 5728 5728 5727 5726 5726
5702 5703 5704 5705 5706 5706 5706 5705 5705 5703 5706 5711 5713 5712 5712 5714 5721 5725 5726 5729 5729 5731 5734 5736 5734 5734 5734 5735 5735 5732 5730 5729 5728 5728 5728 5727 5727 5727 5726 5727 5726 5726 5725
5694 5694 5695 5697 5698 5700 5700 5700 5702 5702 5700 5703 5707 5708 5711 5713 5710 5715 5719 5723 5724 5724 5729 5732 5733 5733 5732 5733 5732 5730 5728 5727 5726 5726 5726 5726 5726 5725 5725 5725 5724 5724 5724
5684 5685 5686 5687 5688 5690 5692 5692 5694 5695 5698 5699 5701 5704 5704 5704 5705 5706 5710 5715 5719 5723 5725 5726 5728 5730 5731 5730 5730 5730 5727 5725 5723 5723 5723 5723 5723 5723 5723 5723 5723 5723 5723
5674 5674 5675 5676 5678 5680 5682 5683 5686 5688 5691 5693 5695 5699 5699 5700 5702 5704 5704 5707 5711 5717 5721 5723 5724 5726 5727 5728 5727 5725 5723 5722 5721 5720 5720 5720 5720 5721 5721 5721 5722 5722 5722
5664 5663 5664 5664 5665 5667 5669 5672 5675 5679 5681 5683 5685 5690 5694 5697 5700 5701 5701 5704 5706 5711 5713 5716 5721 5722 5723 5723 5722 5719 5719 5719 5718 5718 5717 5717 5717 5718 5719 5720 5720 5720 5721
5652 5652 5651 5652 5653 5655 5657 5660 5663 5667 5670 5674 5677 5680 5683 5688 5693 5694 5695 5696 5697 5702 5705 5709 5715 5717 5718 5718 5717 5714 5716 5715 5715 5715 5714 5714 5714 5715 5716 5717 5718 5718 5719
5638 5638 5638 5638 5640 5641 5643 5646 5650 5653 5658 5662 5667 5671 5673 5679 5682 5686 5688 5690 5690 5691 5697 5703 5705 5711 5712 5712 5710 5712 5713 5712 5711 5712 5712 5712 5712 5712 5713 5714 5714 5715 5716
5622 5622 5622 5624 5625 5627 5629 5632 5636 5641 5644 5648 5653 5657 5662 5668 5673 5676 5679 5682 5685 5687 5690 5699 5700 5705 5705 5707 5705 5707 5708 5707 5707 5708 5708 5709 5709 5709 5709 5710 5711 5711 5712
5607 5607 5607 5608 5609 5612 5614 5617 5622 5626 5629 5633 5638 5643 5648 5653 5658 5664 5668 5671 5675 5678 5680 5689 5694 5696 5695 5697 5699 5702 5704 5704 5706 5705 5705 5705 5705 5705 5705 5706 5706 5707 5707
5592 5592 5592 5593 5595 5597 5599 5602 5606 5611 5615 5619 5623 5628 5632 5638 5643 5649 5654 5659 5664 5669 5671 5675 5682 5686 5686 5689 5692 5694 5698 5701 5701 5699 5699 5699 5699 5700 5700 5701 5701 5702 5702
5578 5577 5577 5578 5580 5582 5584 5587 5591 5595 5599 5604 5608 5613 5617 5622 5627 5634 5639 5646 5652 5658 5662 5666 5671 5677 5679 5682 5684 5687 5690 5692 5694 5693 5692 5692 5693 5693 5694 5694 5695 5695 5696
5564 5564 5564 5565 5566 5568 5571 5574 5577 5580 5584 5589 5594 5598 5603 5608 5614 5619 5625 5631 5638 5644 5651 5656 5662 5667 5670 5674 5676 5679 5681 5684 5685 5686 5685 5685 5685 5685 5686 5687 5687 5688 5689
5552 5552 5552 5553 5555 5557 5560 5562 5563 5567 5570 5575 5580 5585 5590 5595 5600 5605 5611 5618 5625 5632 5640 5647 5654 5659 5663 5665 5669 5673 5674 5675 5676 5677 5678 5678 5679 5680 5679 5678 5679 5679 5680
5539 5538 5540 5541 5543 5547 5550 5549 5549 5554 5559 5563 5567 5573 5578 5582 5587 5590 5595 5602 5610 5619 5628 5636 5645 5651 5656 5660 5663 5666 5667 5667 5667 5669 5670 5669 5672 5671 5671 5670 5669 5670 5671
5527 5527 5528 5530 5532 5535 5535 5536 5536 5541 5547 5552 5557 5562 5568 5576 5579 5583 5587 5590 5596 5604 5612 5623 5633 5643 5649 5654 5657 5659 5661 5664 5665 5663 5663 5660 5661 5661 5659 5658 5659 5660 5661
5516 5516 5518 5520 5522 5525 5524 5524 5526 5529 5537 5543 5548 5553 5558 5563 5569 5573 5578 5584 5590 5599 5606 5613 5624 5634 5640 5646 5649 5652 5655 5655 5656 5655 5657 5653 5651 5651 5650 5648 5647 5649 5650
5507 5507 5509 5511 5513 5515 5515 5516 5516 5523 5530 5535 5541 5546 5551 5555 5559 5561 5566 5574 5582 5590 5596 5604 5612 5621 5627 5634 5640 5643 5645 5646 5647 5646 5649 5649 5645 5643 5641 5639 5637 5638 5639
5500 5500 5501 5504 5505 5508 5508 5508 5508 5518 5526 5532 5536 5540 5542 5546 5549 5550 5556 5565 5572 5580 5588 5597 5602 5609 5618 5625 5630 5636 5642 5644 5644 5642 5644 5645 5641 5640 5634 5631 5630 5629 5629